This is the latest recevied weather packets stored in our database for station/object KB1JL-13. If no packets are shown the sender has not sent any weather packets the latest 10 day(s).
| Time | Temp. | Humidity | Pressure | Rain* | Wind** | Luminosity | Snow |
|---|---|---|---|---|---|---|---|
| 1778166552 | 13.33° C | 45% | 1021.6 hPa | 0 mm | - | 783 W/m² | - |
| 1778166248 | 13.89° C | 45% | 1021.6 hPa | 0 mm | - | 741 W/m² | - |
| 1778165945 | 13.89° C | 47% | 1021.6 hPa | 0 mm | - | 715 W/m² | - |
| 1778165641 | 13.89° C | 46% | 1021.6 hPa | 0 mm | - | 733 W/m² | - |
| 1778165338 | 13.33° C | 47% | 1021.6 hPa | 0 mm | - | 751 W/m² | - |
| 1778165035 | 12.78° C | 47% | 1021.6 hPa | 0 mm | - | 728 W/m² | - |
| 1778164732 | 13.33° C | 44% | 1021.6 hPa | 0 mm | - | 728 W/m² | - |
| 1778164429 | 12.78° C | 47% | 1021.9 hPa | 0 mm | - | 694 W/m² | - |
| 1778164125 | 12.78° C | 49% | 1021.6 hPa | 0 mm | - | 683 W/m² | - |
| 1778163822 | 13.33° C | 49% | 1021.6 hPa | 0 mm | - | 688 W/m² | - |
| 1778163518 | 13.33° C | 51% | 1021.6 hPa | 0 mm | - | 701 W/m² | - |
| 1778163215 | 13.33° C | 53% | 1021.9 hPa | 0 mm | - | 688 W/m² | - |
| 1778162912 | 12.78° C | 53% | 1021.6 hPa | 0 mm | - | 685 W/m² | - |
| 1778162608 | 12.78° C | 51% | 1021.9 hPa | 0 mm | - | 472 W/m² | - |
| 1778162307 | 12.22° C | 55% | 1021.9 hPa | 0 mm | - | 647 W/m² | - |
| 1778162003 | 12.22° C | 52% | 1021.9 hPa | 0 mm | - | 632 W/m² | - |
| 1778161700 | 12.22° C | 53% | 1021.6 hPa | 0 mm | - | 633 W/m² | - |
| 1778161396 | 12.22° C | 60% | 1021.6 hPa | 0 mm | - | 610 W/m² | - |
| 1778161092 | 11.11° C | 61% | 1021.6 hPa | 0 mm | - | 393 W/m² | - |
| 1778160788 | 10.56° C | 60% | 1021.6 hPa | 0 mm | - | 481 W/m² | - |
| 1778160487 | 10.56° C | 61% | 1021.9 hPa | 0 mm | - | 192 W/m² | - |
| 1778160183 | 10.56° C | 63% | 1021.6 hPa | 0 mm | - | 286 W/m² | - |
| 1778159880 | 10.56° C | 66% | 1021.6 hPa | 0 mm | - | 299 W/m² | - |
| 1778159577 | 11.11° C | 66% | 1021.9 hPa | 0 mm | - | 149 W/m² | - |
| 1778159273 | 11.11° C | 68% | 1021.9 hPa | 0 mm | - | 206 W/m² | - |
* Rain latest hour (hover to see other rain measurements)
** Current wind speed in m/s (hover to see current wind gust speed)